AirNav   Air Wisconsin Up To $57,000 Bonus
 
 658 users online  

N40 Sky Manor Airport
Pittstown, New Jersey, USA

GOING TO PITTSTOWN?


FAA INFORMATION EFFECTIVE 31 DECEMBER 2020

Location

FAA Identifier: N40
Lat/Long: 40-33-57.1760N 074-58-45.5090W
40-33.952933N 074-58.758483W
40.5658822,-74.9793081
(estimated)
Elevation: 560 ft. / 171 m (estimated)
Variation: 13W (2010)
From city: 2 miles SW of PITTSTOWN, NJ
Time zone: UTC -5 (UTC -4 during Daylight Saving Time)
Zip code: 08867

Airport Operations

Airport use: Open to the public
Activation date: 03/1947
Control tower: no
ARTCC: NEW YORK CENTER
FSS: MILLVILLE FLIGHT SERVICE STATION
NOTAMs facility: MIV (NOTAM-D service available)
Attendance: CONTINUOUS
Wind indicator: yes
Segmented circle: no
Lights: ACTVT REIL RWY 07 & 25; PAPI RWY 07 & 25; MIRL RWY 07/25; TWY LGTS - CTAF.

Airport Communications

CTAF/UNICOM: 122.975
WX AWOS-3: 121.725
ALLENTOWN APPROACH: 119.65 ;3000 FT & BLW 124.45 ;ABV 3000 FT
ALLENTOWN DEPARTURE: 119.65 ;3000 FT & BLW 124.45 ;ABV 3000 FT
IC: 119.65 ;3000 FT & BLW 124.45 ;ABV 3000 FT
WX ASOS at SMQ (15 nm E): 120.6 (908-722-2139)
WX ASOS at DYL (15 nm SW): 118.875 (215-345-0392)
WX AWOS-3 at CKZ (18 nm SW): 126.325 (215-257-7291)
WX ASOS at TTN (19 nm SE): 126.775 (609-538-8690)
WX AWOS-3 at UKT (20 nm SW): 119.475 (215-538-7610)

Nearby radio navigation aids

VOR radial/distance  VOR name  Freq  Var
SBJr275/10.9SOLBERG VOR/DME112.9010W
BWZr218/15.7BROADWAY VOR/DME114.2011W
ARDr000/19.0YARDLEY VOR/DME108.2010W
FJCr124/23.7ALLENTOWN VORTAC117.5010W
STWr202/26.3STILLWATER VOR/DME109.6011W
RBVr325/31.1ROBBINSVILLE VORTAC113.8010W
ETXr101/32.1EAST TEXAS VOR/DME110.2009W
PTWr061/33.6POTTSTOWN VORTAC116.5009W
SAXr225/36.2SPARTA VORTAC115.7011W
GXUr344/37.7MC GUIRE VORTAC110.6012W

 
NDB name  Hdg/Dist  Freq  Var  ID
CHATHAM260/27.125413WCAT -.-. .- -
AMBLER040/29.927512WING .. -. --.

Airport Services

Fuel available: 100LL
Parking: hangars and tiedowns
Airframe service: MAJOR
Powerplant service: MAJOR
Bottled oxygen: NONE
Bulk oxygen: NONE

Runway Information

Runway 7/25

Dimensions: 2900 x 50 ft. / 884 x 15 m
Surface: asphalt, in good condition
Runway edge lights: medium intensity
RUNWAY 7  RUNWAY 25
Latitude: 40-33.813333N40-34.092533N
Longitude: 074-59.012667W074-58.504300W
Elevation: 548.0 ft.558.0 ft.
Traffic pattern: leftleft
Runway heading: 067 magnetic, 054 true247 magnetic, 234 true
Markings: nonprecision, in good conditionnonprecision, in good condition
Visual slope indicator: 2-light PAPI on left (4.00 degrees glide path)
VGSI AND DESCENT ANGLES NOT COINCIDENT. UNUSBL BYD 4 DEGS RIGHT OF CNTRLN.
2-light PAPI on left (4.00 degrees glide path)
Runway end identifier lights: yesyes
REIL RWY 25 OTS.
Touchdown point: yes, no lightsyes, no lights
Obstructions: 93 ft. trees, 1020 ft. from runway, 360 ft. right of centerline, 9:1 slope to clear99 ft. pline, lighted, 2070 ft. from runway, 210 ft. left of centerline, 18:1 slope to clear
13 FT T-HANGARS 80 FT FM THR 215 FT RIGHT.

Airport Ownership and Management from official FAA records

Ownership: Privately-owned
Owner: SKY MANOR AIRPORT PARTNERS LLC
PO BOX 56
PITTSTOWN, NJ 08867
Phone 908-996-4200
Manager: SKY MANOR AIRPORT PARTNERS LCC
PO BOX 56
PITTSTOWN, NJ 08867
Phone 908-996-4200

Airport Operational Statistics

Aircraft based on the field: 108
Single engine airplanes: 100
Multi engine airplanes: 3
Helicopters: 3
Ultralights: 2
    
Aircraft operations: avg 62/day *
73% local general aviation
26% transient general aviation
<1% air taxi
* for 12-month period ending 02 May 2019

Additional Remarks

HELICOPTER ACTIVITY ON & INVOF ARPT.
APN MAIN RAMP CLSD TO HEL AIR TAX AND HOVER OPS NEAR FUEL PUMP.
DEER & BIRDS ON & INVOF ARPT.
SELF-SERVE FUEL SYSTEM ON NORTH END OF TIE-DOWN RAMP.
FOR CD CTC ALLENTOWN APCH AT 800-728-6322.
AVOID OVERFLIGHT OF HORSE FARM (STABLES) 500 FT N OF ACFT HNGRS.
RWY 07 NOISE ABATEMENT PROCEDURES VFR DEP FLY RWY HDG UNTIL REACHING AT LEAST 1300FT MSL.
RWY 25 NOISE ABATEMENT PROCEDURES VFR DEP SAFETY PERMITTING AT DEP END OF RWY TURN RIGHT FLY HDG 270 UNTIL REACHING AT LEAST 1300FT MSL.

Instrument Procedures

NOTE: All procedures below are presented as PDF files. If you need a reader for these files, you should download the free Adobe Reader.

NOT FOR NAVIGATION. Please procure official charts for flight.
FAA instrument procedures published for use from 31 December 2020 at 0901Z to 28 January 2021 at 0900Z.

 
IAPs - Instrument Approach Procedures
RNAV (GPS) RWY 07   download (178KB)
RNAV (GPS) RWY 25   download (180KB)
VOR RWY 07   download (196KB)
NOTE: Special Alternate Minimums apply   download (126KB)
NOTE: Special Take-Off Minimums/Departure Procedures apply   download (150KB)

Other nearby airports with instrument procedures:

N85 - Alexandria Airport (2 nm NW)
N51 - Solberg-Hunterdon Airport (11 nm E)
KSMQ - Somerset Airport (15 nm E)
KDYL - Doylestown Airport (15 nm SW)
N43 - Braden Airpark (16 nm NW)
47N - Central Jersey Regional Airport (18 nm E)
39N - Princeton Airport (18 nm SE)
KCKZ - Pennridge Airport (18 nm SW)
KTTN - Trenton Mercer Airport (19 nm SE)
KUKT - Quakertown Airport (20 nm SW)
 
Loc | Ops | Rwys | IFR | FBO | Links
Com | Nav | Svcs | Stats | Notes
Area around N40 (Sky Manor Airport)
 
Road maps at: MapQuest Bing Google
 
Aerial photo
WARNING: Photo may not be current or correct
Aerial photo of N40 (Sky Manor Airport)
Photo taken 30-Jul-2017
looking southwest.

Do you have a better or more recent aerial photo of Sky Manor Airport that you would like to share? If so, please send us your photo.

 
Sectional chart

 
Airport distance calculator
Flying to Sky Manor Airport? Find the distance to fly.

From to N40

Sunrise and sunset
Times for 16-Jan-2021
 Local
(UTC-5)
 Zulu
(UTC)
Morning civil twilight06:5211:52
Sunrise07:2212:22
Sunset16:5721:57
Evening civil twilight17:2722:27

Current date and time
Zulu (UTC)  16-Jan-2021 05:46:49
Local (UTC-5)  16-Jan-2021 00:46:49
 
METAR
KSMQ 
15nm E 
ASOS 120.60 908-722-2139
160501Z AUTO 24009G18KT 3SM RA BR OVC009 06/05 A2969 RMK AO2 P0003 T00610050
KDYL 
15nm SW 
160515Z AUTO 01003KT 6SM -RA BR SCT005 OVC041 08/06 A2965 RMK AO2 PRESFR P0003 T00780061
KCKZ 
18nm SW 
160535Z AUTO 00000KT 5SM -RA SCT003 BKN028 OVC042 06/06 A2967 RMK AO2 P0006
KTTN 
19nm SE 
ASOS 133.70 609-538-8690
160540Z AUTO 07003KT 9SM -RA FEW004 BKN047 OVC055 07/07 A2967 RMK AO2 P0001 T00720072
KUKT 
20nm SW 
160535Z AUTO 00000KT 4SM BR BKN023 BKN027 OVC039 06/06 A2966 RMK A01
KABE 
22nm W 
160532Z 00000KT 4SM +RA BR FEW008 BKN015 OVC029 07/06 A2967 RMK AO2 P0013 T00670056
KXLL 
23nm W 
160535Z AUTO 00000KT 10SM RA SCT025 BKN030 OVC036 07/06 A2968 RMK AO2 P0005
KMMU 
29nm NE 
160535Z AUTO 35004KT 5SM RA OVC006 05/04 A2970 RMK AO2 P0005
KLOM 
29nm SW 
160535Z AUTO 00000KT 1 3/4SM RA BR OVC048 07/07 A2967 RMK AO2 P0010 T00750074
KPNE 
29nm S 
160454Z AUTO 35003KT 4SM -RA BR FEW040 OVC050 09/08 A2969 RMK AO2 RAB16 PRESFR SLP054 P0004 T00890078 401171011
TAF
KTTN 
19nm SE 
160001Z 1600/1624 09010KT P6SM -SHRA BKN015 OVC035 FM160200 11008KT 4SM -RA BR OVC008 FM160500 VRB03KT 1SM -RA BR OVC004 FM161100 VRB03KT 2SM -DZ BR OVC004 FM161500 29006KT P6SM BKN010 FM161800 29008KT P6SM BKN035 FM162100 28008KT P6SM BKN060
KABE 
22nm W 
152106Z 1521/1618 09008KT 5SM HZ OVC015 TEMPO 1602/1604 4SM -SHRA BR OVC009 FM160400 VRB04KT 2SM -RA BR OVC007 FM160800 VRB04KT 1SM -RADZ BR OVC005 FM161300 29007KT 4SM BR VCSH OVC015
NOTAMs
Click for the latest NOTAMs
NOTAMs are issued by the DoD/FAA and will open in a separate window not controlled by AirNav.

 

 
 

FBO, Fuel Providers, and Aircraft Ground Support

  
 Business Name 
 
 Contact 
 
 Services / Description 
 
Fuel Prices
 
Comments
  
 Sky Manor Airport
908-996-4200
[web site]
[email]
Airport management, Aviation fuel, Aircraft parking (ramp or tiedown), Hangars, Restrooms

More info about Sky Manor Airport
Shell
100LL
SS $4.19 
 Updated 12-Jan-2021
 
   write
SS=Self service
Update Fuel Prices
 

Aviation Businesses, Services, and Facilities

  
 Business Name 
 
 Contact 
 
 Services / Description 
 
Distance
 
Comments
  
 Sky Manor Air Repair and Avionics
908-996-0541
[web site]
[email]
Maintenance and Avionics from the experienced TEAM of professionals. We have a talented IA and 2 A&Ps on staff to exceed your expectations. See us for Annuals, Repairs, 2yr Checks, and Installs. Representing GARMIN, Avidyne, Aspen, L3/Lynx, Stratus, PS-Eng Audio Controls, S-Tec, and more.

More info about Sky Manor Air Repair and Avionics
on airport  
   write
 

Would you like to see your business listed on this page?

 If your business provides an interesting product or service to pilots, flight crews, aircraft, or users of the Sky Manor Airport, you should consider listing it here.  To start the listing process, click on the button below
 
Add a business
 

Other Pages about Sky Manor Airport

www.skymanorairport.com
 
Update a link
 
Copyright © AirNav, LLC. All rights reserved. Privacy Policy  Contact